Year,Month,Day,Hour,Minute,Value (Times are PST for temperature in C)
2009,07,07,09,31,13.50
2009,07,07,09,32,13.50
2009,07,07,09,33,13.50
2009,07,07,09,34,13.50
2009,07,07,09,35,13.60
2009,07,07,09,36,13.60
2009,07,07,09,37,13.60
2009,07,07,09,38,13.60
2009,07,07,09,39,13.60
2009,07,07,09,40,13.60
2009,07,07,09,41,13.70
2009,07,07,09,42,13.70
2009,07,07,09,43,13.70
2009,07,07,09,44,13.70
2009,07,07,09,45,13.70
2009,07,07,09,46,13.70
2009,07,07,09,47,13.80
2009,07,07,09,48,13.80
2009,07,07,09,49,13.80
2009,07,07,09,50,13.80
2009,07,07,09,51,13.80
2009,07,07,09,52,13.90
2009,07,07,09,53,13.90
2009,07,07,09,54,13.90
2009,07,07,09,55,13.90
2009,07,07,09,56,13.90
2009,07,07,09,57,13.90
2009,07,07,09,58,13.90
2009,07,07,09,59,13.90
2009,07,07,10,00,13.90
2009,07,07,10,01,13.90
2009,07,07,10,02,13.90
2009,07,07,10,03,13.90
2009,07,07,10,04,13.90
2009,07,07,10,05,13.90
2009,07,07,10,06,13.90
2009,07,07,10,07,13.90
2009,07,07,10,08,13.90
2009,07,07,10,09,13.90
2009,07,07,10,10,13.80
2009,07,07,10,11,13.80
2009,07,07,10,12,13.80
2009,07,07,10,13,13.80
2009,07,07,10,14,13.80
2009,07,07,10,15,13.70
2009,07,07,10,16,13.70
2009,07,07,10,17,13.60
2009,07,07,10,18,13.60
2009,07,07,10,19,13.50
2009,07,07,10,20,13.40
2009,07,07,10,21,13.30
2009,07,07,10,22,13.30
2009,07,07,10,23,13.30
2009,07,07,10,24,13.20
2009,07,07,10,25,13.10
2009,07,07,10,26,13.10
2009,07,07,10,27,13.10
2009,07,07,10,28,13.00
2009,07,07,10,29,13.00
2009,07,07,10,30,13.00
2009,07,07,10,31,12.90
2009,07,07,10,32,12.90
2009,07,07,10,33,12.90
2009,07,07,10,34,12.90
2009,07,07,10,35,12.90
2009,07,07,10,36,12.90
2009,07,07,10,37,12.90
2009,07,07,10,38,12.90
2009,07,07,10,39,12.90
2009,07,07,10,40,12.90
2009,07,07,10,41,12.90
2009,07,07,10,42,12.90
2009,07,07,10,43,12.90
2009,07,07,10,44,12.90
2009,07,07,10,45,12.90
2009,07,07,10,46,12.90
2009,07,07,10,47,12.90
2009,07,07,10,48,12.90
2009,07,07,10,49,12.90
2009,07,07,10,50,12.90
2009,07,07,10,51,12.90
2009,07,07,10,52,12.90
2009,07,07,10,53,12.90
2009,07,07,10,54,12.90
2009,07,07,10,55,12.90
2009,07,07,10,56,12.90
2009,07,07,10,57,12.90
2009,07,07,10,58,12.90
2009,07,07,10,59,12.90
2009,07,07,11,00,12.90
2009,07,07,11,01,12.90
2009,07,07,11,02,12.90
2009,07,07,11,03,12.90
2009,07,07,11,04,13.00
2009,07,07,11,05,13.00
2009,07,07,11,06,13.00
2009,07,07,11,07,13.10
2009,07,07,11,08,13.10
2009,07,07,11,09,13.10
2009,07,07,11,10,13.10
2009,07,07,11,11,13.10
2009,07,07,11,12,13.10
2009,07,07,11,13,13.10
2009,07,07,11,14,13.10
2009,07,07,11,15,13.10
2009,07,07,11,16,13.10
2009,07,07,11,17,13.10
2009,07,07,11,18,13.10
2009,07,07,11,19,13.10
2009,07,07,11,20,13.00
2009,07,07,11,21,12.90
2009,07,07,11,22,12.90
2009,07,07,11,23,12.90
2009,07,07,11,24,13.00
2009,07,07,11,25,13.00
2009,07,07,11,26,13.10
2009,07,07,11,27,13.10
2009,07,07,11,28,13.10
2009,07,07,11,29,13.20
2009,07,07,11,30,13.20
2009,07,07,11,31,13.30
2009,07,07,11,32,13.30
2009,07,07,11,33,13.30
2009,07,07,11,34,13.30
2009,07,07,11,35,13.30
2009,07,07,11,36,13.40
2009,07,07,11,37,13.40
2009,07,07,11,38,13.40
2009,07,07,11,39,13.40
2009,07,07,11,40,13.50
2009,07,07,11,41,13.50
2009,07,07,11,42,13.50
2009,07,07,11,43,13.60
2009,07,07,11,44,13.60
2009,07,07,11,45,13.70
2009,07,07,11,46,13.80
2009,07,07,11,47,13.80
2009,07,07,11,48,13.80
2009,07,07,11,49,13.70
2009,07,07,11,50,13.70
2009,07,07,11,51,13.80
2009,07,07,11,52,13.80
2009,07,07,11,53,13.80
2009,07,07,11,54,13.80
2009,07,07,11,55,13.80
2009,07,07,11,56,13.70
2009,07,07,11,57,13.70
2009,07,07,11,58,13.70
2009,07,07,11,59,13.60
2009,07,07,12,00,13.60
2009,07,07,12,01,13.60
2009,07,07,12,02,13.60
2009,07,07,12,03,13.60
2009,07,07,12,04,13.60
2009,07,07,12,05,13.50
2009,07,07,12,06,13.50
2009,07,07,12,07,13.50
2009,07,07,12,08,13.50
2009,07,07,12,09,13.50
2009,07,07,12,10,13.60
2009,07,07,12,11,13.50
2009,07,07,12,12,13.60
2009,07,07,12,13,13.60
2009,07,07,12,14,13.60
2009,07,07,12,15,13.60
2009,07,07,12,16,13.60
2009,07,07,12,17,13.50
2009,07,07,12,18,13.50
2009,07,07,12,19,13.50
2009,07,07,12,20,13.50
2009,07,07,12,21,13.50
2009,07,07,12,22,13.50
2009,07,07,12,23,13.50
2009,07,07,12,24,13.50
2009,07,07,12,25,13.40
2009,07,07,12,26,13.40
2009,07,07,12,27,13.40
2009,07,07,12,28,13.40
2009,07,07,12,29,13.40
2009,07,07,12,30,13.40
2009,07,07,12,31,13.40
2009,07,07,12,32,13.40
2009,07,07,12,33,13.40
2009,07,07,12,34,13.40
2009,07,07,12,35,13.40
2009,07,07,12,36,13.40
2009,07,07,12,37,13.40
2009,07,07,12,38,13.30
2009,07,07,12,39,13.30
2009,07,07,12,40,13.30
2009,07,07,12,41,13.30
2009,07,07,12,42,13.30
2009,07,07,12,43,13.30
2009,07,07,12,44,13.30
2009,07,07,12,45,13.30
2009,07,07,12,46,13.30
2009,07,07,12,47,13.30
2009,07,07,12,48,13.30
2009,07,07,12,49,13.30
2009,07,07,12,50,13.20
2009,07,07,12,51,13.20
2009,07,07,12,52,13.10
2009,07,07,12,53,13.10
2009,07,07,12,54,13.10
2009,07,07,12,55,13.10
2009,07,07,12,56,13.10
2009,07,07,12,57,13.00
2009,07,07,12,58,13.00
2009,07,07,12,59,13.00
2009,07,07,13,00,12.90
2009,07,07,13,01,12.80
2009,07,07,13,02,12.80
2009,07,07,13,03,12.70
2009,07,07,13,04,12.70
2009,07,07,13,05,12.60
2009,07,07,13,06,12.60
2009,07,07,13,07,12.50
2009,07,07,13,08,12.50
2009,07,07,13,09,12.40
2009,07,07,13,10,12.40
2009,07,07,13,11,12.40
2009,07,07,13,12,12.30
2009,07,07,13,13,12.30
2009,07,07,13,14,12.30
2009,07,07,13,15,12.30
2009,07,07,13,16,12.30
2009,07,07,13,17,12.30
2009,07,07,13,18,12.30
2009,07,07,13,19,12.30
2009,07,07,13,20,12.30
2009,07,07,13,21,12.30
2009,07,07,13,22,12.30
2009,07,07,13,23,12.30
2009,07,07,13,24,12.30
2009,07,07,13,25,12.30
2009,07,07,13,26,12.30
2009,07,07,13,27,12.30
2009,07,07,13,28,12.30
2009,07,07,13,29,12.30
2009,07,07,13,30,12.30
2009,07,07,13,31,12.30
2009,07,07,13,32,12.30
2009,07,07,13,33,12.30
2009,07,07,13,34,12.30
2009,07,07,13,35,12.30
2009,07,07,13,36,12.30
2009,07,07,13,37,12.30
2009,07,07,13,38,12.30
2009,07,07,13,39,12.30
2009,07,07,13,40,12.30
2009,07,07,13,41,12.30
2009,07,07,13,42,12.30
2009,07,07,13,43,12.40
2009,07,07,13,44,12.40
2009,07,07,13,45,12.40
2009,07,07,13,46,12.40
2009,07,07,13,47,12.40
2009,07,07,13,48,12.40
2009,07,07,13,49,12.40
2009,07,07,13,50,12.40
2009,07,07,13,51,12.40
2009,07,07,13,52,12.40
2009,07,07,13,53,12.40
2009,07,07,13,54,12.40
2009,07,07,13,55,12.50
2009,07,07,13,56,12.50
2009,07,07,13,57,12.50
2009,07,07,13,58,12.50
2009,07,07,13,59,12.60
2009,07,07,14,00,12.60
2009,07,07,14,01,12.60
2009,07,07,14,02,12.60
2009,07,07,14,03,12.60
2009,07,07,14,04,12.60
2009,07,07,14,05,12.60
2009,07,07,14,06,12.60
2009,07,07,14,07,12.60
2009,07,07,14,08,12.60
2009,07,07,14,09,12.50
2009,07,07,14,10,12.50
2009,07,07,14,11,12.50
2009,07,07,14,12,12.60
2009,07,07,14,13,12.50
2009,07,07,14,14,12.50
2009,07,07,14,15,12.50
2009,07,07,14,16,12.50
2009,07,07,14,17,12.50
2009,07,07,14,18,12.50
2009,07,07,14,19,12.50
2009,07,07,14,20,12.50
2009,07,07,14,21,12.50
2009,07,07,14,22,12.50
2009,07,07,14,23,12.50
2009,07,07,14,24,12.50
2009,07,07,14,25,12.40
2009,07,07,14,26,12.40
2009,07,07,14,27,12.50
2009,07,07,14,28,12.50
2009,07,07,14,29,12.40
2009,07,07,14,30,12.40
2009,07,07,14,31,12.40
2009,07,07,14,32,12.40
2009,07,07,14,33,12.40
2009,07,07,14,34,12.40
2009,07,07,14,35,12.40
2009,07,07,14,36,12.40
2009,07,07,14,37,12.30
2009,07,07,14,38,12.30
2009,07,07,14,39,12.30
2009,07,07,14,40,12.30
2009,07,07,14,41,12.30
2009,07,07,14,42,12.30
2009,07,07,14,43,12.30
2009,07,07,14,44,12.40
2009,07,07,14,45,12.40
2009,07,07,14,46,12.40
2009,07,07,14,47,12.30
2009,07,07,14,48,12.30
2009,07,07,14,49,12.30
2009,07,07,14,50,12.30
2009,07,07,14,51,12.30
2009,07,07,14,52,12.30
2009,07,07,14,53,12.30
2009,07,07,14,54,12.30
2009,07,07,14,55,12.30
2009,07,07,14,56,12.30
2009,07,07,14,57,12.30
2009,07,07,14,58,12.30
2009,07,07,14,59,12.30
2009,07,07,15,00,12.30
2009,07,07,15,01,12.30
2009,07,07,15,02,12.30
2009,07,07,15,03,12.30
2009,07,07,15,04,12.30
2009,07,07,15,05,12.30
2009,07,07,15,06,12.30
2009,07,07,15,07,12.30
2009,07,07,15,08,12.30
2009,07,07,15,09,12.30
2009,07,07,15,10,12.30
2009,07,07,15,11,12.30
2009,07,07,16,53,13.10
2009,07,07,16,54,13.10
2009,07,07,16,55,13.10
2009,07,07,16,56,13.10
2009,07,07,16,57,13.10
2009,07,07,16,58,13.10
2009,07,07,16,59,13.10
2009,07,07,17,00,13.10
2009,07,07,17,01,13.20
2009,07,07,17,02,13.20
2009,07,07,17,03,13.20
2009,07,07,17,04,13.20
2009,07,07,17,05,13.20
2009,07,07,17,06,13.20
2009,07,07,17,07,13.20
2009,07,07,17,08,13.20
2009,07,07,17,09,13.20
2009,07,07,17,10,13.20
2009,07,07,17,11,13.20
2009,07,07,17,12,13.20
2009,07,07,17,13,13.20
2009,07,07,17,14,13.30
2009,07,07,17,15,13.30
2009,07,07,17,16,13.30
2009,07,07,17,17,13.30
2009,07,07,17,18,13.30
2009,07,07,17,19,13.30
2009,07,07,17,20,13.30
2009,07,07,17,21,13.30
2009,07,07,17,22,13.30
2009,07,07,17,23,13.30
2009,07,07,17,24,13.30
2009,07,07,17,25,13.30
2009,07,07,17,26,13.30
2009,07,07,17,27,13.40
2009,07,07,17,28,13.40
2009,07,07,17,29,13.40
2009,07,07,17,30,13.40
2009,07,07,17,31,13.40
2009,07,07,17,32,13.50
2009,07,07,17,33,13.50
2009,07,07,17,34,13.50
2009,07,07,17,35,13.60
2009,07,07,17,36,13.60
2009,07,07,17,37,13.60
2009,07,07,17,38,13.60
2009,07,07,17,39,13.60
2009,07,07,17,40,13.60
2009,07,07,17,41,13.60
2009,07,07,17,42,13.60
2009,07,07,17,43,13.60
2009,07,07,17,44,13.60
2009,07,07,17,45,13.60
2009,07,07,17,46,13.60
2009,07,07,17,47,13.60
2009,07,07,17,48,13.60
2009,07,07,17,49,13.60
2009,07,07,17,50,13.60
2009,07,07,17,51,13.60
2009,07,07,17,52,13.70
2009,07,07,17,53,13.70
2009,07,07,17,54,13.70
2009,07,07,17,55,13.60
2009,07,07,17,56,13.60
2009,07,07,17,57,13.60
2009,07,07,17,58,13.60
2009,07,07,17,59,13.60
2009,07,07,18,00,13.60
2009,07,07,18,01,13.70
2009,07,07,18,02,13.70
2009,07,07,18,03,13.70
2009,07,07,18,04,13.70
2009,07,07,18,05,13.70
2009,07,07,18,06,13.70
2009,07,07,18,07,13.70
2009,07,07,18,08,13.70
2009,07,07,18,09,13.70
2009,07,07,18,10,13.70
2009,07,07,18,11,13.80
2009,07,07,18,12,13.80
2009,07,07,18,13,13.80
2009,07,07,18,14,13.80
2009,07,07,18,15,13.80
2009,07,07,18,16,13.80
2009,07,07,18,17,13.80
2009,07,07,18,18,13.80
2009,07,07,18,19,13.80
2009,07,07,18,20,13.80
2009,07,07,18,21,13.80
2009,07,07,18,22,13.80
2009,07,07,18,23,13.80
2009,07,07,18,24,13.80
2009,07,07,18,25,13.80
2009,07,07,18,26,13.80
2009,07,07,18,27,13.80
2009,07,07,18,28,13.80
2009,07,07,18,29,13.80
2009,07,07,18,30,13.80
2009,07,07,18,31,13.80
2009,07,07,18,32,13.80
2009,07,07,18,33,13.80
2009,07,07,18,34,13.70
2009,07,07,18,35,13.70
2009,07,07,18,36,13.70
2009,07,07,18,37,13.70
2009,07,07,18,38,13.70
2009,07,07,18,39,13.70
2009,07,07,18,40,13.70
2009,07,07,18,41,13.50
2009,07,07,18,42,13.40
2009,07,07,18,43,13.40
2009,07,07,18,44,13.40
2009,07,07,18,45,13.40
2009,07,07,18,46,13.40
2009,07,07,18,47,13.40
2009,07,07,18,48,13.40
2009,07,07,18,49,13.30
2009,07,07,18,50,13.30
2009,07,07,18,51,13.30
2009,07,07,18,52,13.30
2009,07,07,18,53,13.30
2009,07,07,18,54,13.30
2009,07,07,18,55,13.30
2009,07,07,18,56,13.30
2009,07,07,18,57,13.30
2009,07,07,18,58,13.30
2009,07,07,18,59,13.30
2009,07,07,19,00,13.20
2009,07,07,19,01,13.20
2009,07,07,19,02,13.20
2009,07,07,19,03,13.20
2009,07,07,19,04,13.20
2009,07,07,19,05,13.20
2009,07,07,19,06,13.20
2009,07,07,19,07,13.20
2009,07,07,19,08,13.20
2009,07,07,19,09,13.20
2009,07,07,19,10,13.20
2009,07,07,19,11,13.20
2009,07,07,19,12,13.10
2009,07,07,19,13,13.10
2009,07,07,19,14,13.10
2009,07,07,19,15,13.00
2009,07,07,19,16,13.00
2009,07,07,19,17,13.00
2009,07,07,19,18,12.90
2009,07,07,19,19,12.90
2009,07,07,19,20,12.90
2009,07,07,19,21,12.90
2009,07,07,19,22,12.90
2009,07,07,19,23,12.90
2009,07,07,19,24,12.90
2009,07,07,19,25,12.90
2009,07,07,19,26,12.90
2009,07,07,19,27,12.90
2009,07,07,19,28,12.90
2009,07,07,19,29,12.90
2009,07,07,19,30,12.80
2009,07,07,19,31,12.80
2009,07,07,19,32,12.80
2009,07,07,19,33,12.80
2009,07,07,19,34,12.80
2009,07,07,19,35,12.80
2009,07,07,19,36,12.80
2009,07,07,19,37,12.80
2009,07,07,19,38,12.80
2009,07,07,19,39,12.80
2009,07,07,19,40,12.80
2009,07,07,19,41,12.80
2009,07,07,19,42,12.80
2009,07,07,19,43,12.80
2009,07,07,19,44,12.80
2009,07,07,19,45,12.80
2009,07,07,19,46,12.80
2009,07,07,19,47,12.80
2009,07,07,19,48,12.80
2009,07,07,19,49,12.80
2009,07,07,19,50,12.70
2009,07,07,19,51,12.70
2009,07,07,19,52,12.70
2009,07,07,19,53,12.70
2009,07,07,19,54,12.80
2009,07,07,19,55,12.80
2009,07,07,19,56,12.80
2009,07,07,19,57,12.80
2009,07,07,19,58,12.80
2009,07,07,19,59,12.80
2009,07,07,20,00,12.80
2009,07,07,20,01,12.80
2009,07,07,20,02,12.80
2009,07,07,20,03,12.80
2009,07,07,20,04,12.80
2009,07,07,20,05,12.70
2009,07,07,20,06,12.70
2009,07,07,20,07,12.70
2009,07,07,20,08,12.70
2009,07,07,20,09,12.70
2009,07,07,20,10,12.70
2009,07,07,20,11,12.70
2009,07,07,20,12,12.80
2009,07,07,20,13,12.80
2009,07,07,20,14,12.80
2009,07,07,20,15,12.80
2009,07,07,20,16,12.80
2009,07,07,20,17,12.80
2009,07,07,20,18,12.80
2009,07,07,20,19,12.70
2009,07,07,20,20,12.70
2009,07,07,20,21,12.70
2009,07,07,20,22,12.70
2009,07,07,20,23,12.70
2009,07,07,20,24,12.70
2009,07,07,20,25,12.60
2009,07,07,20,26,12.60
2009,07,07,20,27,12.60
2009,07,07,20,28,12.60
2009,07,07,20,29,12.60
2009,07,07,20,30,12.60
2009,07,07,20,31,12.60
2009,07,07,20,32,12.60
2009,07,07,20,33,12.60
2009,07,07,20,34,12.60
2009,07,07,20,35,12.60
2009,07,07,20,36,12.60
2009,07,07,20,37,12.60
2009,07,07,20,38,12.60
2009,07,07,20,39,12.60
2009,07,07,20,40,12.60
2009,07,07,20,41,12.60
2009,07,07,20,42,12.60
2009,07,07,20,43,12.60
2009,07,07,20,44,12.60
2009,07,07,20,45,12.60
2009,07,07,20,46,12.60
2009,07,07,20,47,12.60
2009,07,07,20,48,12.60
2009,07,07,20,49,12.60
2009,07,07,20,50,12.60
2009,07,07,20,51,12.60
2009,07,07,20,52,12.60
2009,07,07,20,53,12.50
2009,07,07,20,54,12.50
2009,07,07,20,55,12.50
2009,07,07,20,56,12.50
2009,07,07,20,57,12.50
2009,07,07,20,58,12.50
2009,07,07,20,59,12.50
2009,07,07,21,00,12.50
2009,07,07,21,01,12.50
2009,07,07,21,02,12.50
2009,07,07,21,03,12.50
2009,07,07,21,04,12.50
2009,07,07,21,05,12.50
2009,07,07,21,06,12.50
2009,07,07,21,07,12.50
2009,07,07,21,08,12.50
2009,07,07,21,09,12.50
2009,07,07,21,10,12.50
2009,07,07,21,11,12.50
2009,07,07,21,12,12.50
2009,07,07,21,13,12.50
2009,07,07,21,14,12.50
2009,07,07,21,15,12.50
2009,07,07,21,16,12.50
2009,07,07,21,17,12.50
2009,07,07,21,18,12.50
2009,07,07,21,19,12.50
2009,07,07,21,20,12.50
2009,07,07,21,21,12.50
2009,07,07,21,22,12.50
2009,07,07,21,23,12.50
2009,07,07,21,24,12.50
2009,07,07,21,25,12.50
2009,07,07,21,26,12.50
2009,07,07,21,27,12.60
2009,07,07,21,28,12.50
2009,07,07,21,29,12.50
2009,07,07,21,30,12.50
2009,07,07,21,31,12.50
2009,07,07,21,32,12.50
2009,07,07,21,33,12.50
2009,07,07,21,34,12.50
2009,07,07,21,35,12.50
2009,07,07,21,36,12.50
2009,07,07,21,37,12.50
2009,07,07,21,38,12.50
2009,07,07,21,39,12.50
2009,07,07,21,40,12.50
2009,07,07,21,41,12.50
2009,07,07,21,42,12.50
2009,07,07,21,43,12.50
2009,07,07,21,44,12.40
2009,07,07,21,45,12.50
2009,07,07,21,46,12.40
2009,07,07,21,47,12.40
2009,07,07,21,48,12.40
2009,07,07,21,49,12.40
2009,07,07,21,50,12.40
2009,07,07,21,51,12.40
2009,07,07,21,52,12.40
2009,07,07,21,53,12.40
2009,07,07,21,54,12.40
2009,07,07,21,55,12.40
2009,07,07,21,56,12.40
2009,07,07,21,57,12.40
2009,07,07,21,58,12.40
2009,07,07,21,59,12.40
2009,07,07,22,00,12.40
2009,07,07,22,01,12.40
2009,07,07,22,02,12.40
2009,07,07,22,03,12.40
2009,07,07,22,04,12.40
2009,07,07,22,05,12.40
2009,07,07,22,06,12.40
2009,07,07,22,07,12.40
2009,07,07,22,08,12.40
2009,07,07,22,09,12.40
2009,07,07,22,10,12.40
2009,07,07,22,11,12.40
2009,07,07,22,12,12.40
2009,07,07,22,13,12.40
2009,07,07,22,14,12.40
2009,07,07,22,15,12.40
2009,07,07,22,16,12.40
2009,07,07,22,17,12.40
2009,07,07,22,18,12.40
2009,07,07,22,19,12.40
2009,07,07,22,20,12.40
2009,07,07,22,21,12.30
2009,07,07,22,22,12.30
2009,07,07,22,23,12.30
2009,07,07,22,24,12.30
2009,07,07,22,25,12.30
2009,07,07,22,26,12.30
2009,07,07,22,27,12.30
2009,07,07,22,28,12.30
2009,07,07,22,29,12.30
2009,07,07,22,30,12.30
2009,07,07,22,31,12.30
2009,07,07,22,32,12.30
2009,07,07,22,33,12.30
2009,07,07,22,34,12.30
2009,07,07,22,35,12.30
2009,07,07,22,36,12.30
2009,07,07,22,37,12.30
2009,07,07,22,38,12.30
2009,07,07,22,39,12.30
2009,07,07,22,40,12.30
2009,07,07,22,41,12.30
2009,07,07,22,42,12.30
2009,07,07,22,43,12.30
2009,07,07,22,44,12.30
2009,07,07,22,45,12.30
2009,07,07,22,46,12.30
2009,07,07,22,47,12.30
2009,07,07,22,48,12.20
2009,07,07,22,49,12.20
2009,07,07,22,50,12.20
2009,07,07,22,51,12.20
2009,07,07,22,52,12.20
2009,07,07,22,53,12.20
2009,07,07,22,54,12.20
2009,07,07,22,55,12.20
2009,07,07,22,56,12.20
2009,07,07,22,57,12.20
2009,07,07,22,58,12.20
2009,07,07,22,59,12.20
2009,07,07,23,00,12.20
2009,07,07,23,01,12.20
2009,07,07,23,02,12.10
2009,07,07,23,03,12.10
2009,07,07,23,04,12.10
2009,07,07,23,05,12.10
2009,07,07,23,06,12.10
2009,07,07,23,07,12.10
2009,07,07,23,08,12.10
2009,07,07,23,09,12.10
2009,07,07,23,10,12.10
2009,07,07,23,11,12.10
2009,07,07,23,12,12.10
2009,07,07,23,13,12.10
2009,07,07,23,14,12.10
2009,07,07,23,15,12.10
2009,07,07,23,16,12.10
2009,07,07,23,17,12.10
2009,07,07,23,18,12.10
2009,07,07,23,19,12.10
2009,07,07,23,20,12.10
2009,07,07,23,21,12.10
2009,07,07,23,22,12.10
2009,07,07,23,23,12.10
2009,07,07,23,24,12.10
2009,07,07,23,25,12.10
2009,07,07,23,26,12.10
2009,07,07,23,27,12.10
2009,07,07,23,28,12.00
2009,07,07,23,29,12.00
2009,07,07,23,30,12.00
2009,07,07,23,31,12.00
2009,07,07,23,32,12.00
2009,07,07,23,33,12.00
2009,07,07,23,34,12.00
2009,07,07,23,35,12.00
2009,07,07,23,36,12.00
2009,07,07,23,37,12.00
2009,07,07,23,38,12.00
2009,07,07,23,39,12.00
2009,07,07,23,40,12.00
2009,07,07,23,41,12.00
2009,07,07,23,42,12.00
2009,07,07,23,43,12.00
2009,07,07,23,44,12.00
2009,07,07,23,45,12.00
2009,07,07,23,46,12.00
2009,07,07,23,47,11.90
2009,07,07,23,48,12.00
2009,07,07,23,49,12.00
2009,07,07,23,50,11.90
2009,07,07,23,51,11.90
2009,07,07,23,52,11.90
2009,07,07,23,53,11.90
2009,07,07,23,54,11.90
2009,07,07,23,55,11.90
2009,07,07,23,56,11.90
2009,07,07,23,57,11.90
2009,07,07,23,58,12.00
2009,07,07,23,59,12.00
